Regional Weather Roundup
Issued by NWS

Home | Current Version | Previous Version | Graphics & Text | Print | Product List | Glossary On
Versions: 1 2 3 4 5 6 7 8 9 10 11 12 13 14 15 16 17 18 19 20 21 22 23 24 25 26 27 28 29 30 31 32 33 34 35 36 37 38 39 40 41 42 43 44 45 46 47 48 49 50
000
ASUS43 KLMK 151302
RWRKY
KENTUCKY REGIONAL WEATHER ROUNDUP
NATIONAL WEATHER SERVICE LOUISVILLE KY
800 AM EST FRI DEC 15 2017

NOTE "FAIR" INDICATES FEW OR NO CLOUDS BELOW 12,000 FEET
WITH NO SIGNIFICANT WEATHER AND/OR OBSTRUCTIONS TO VISIBILITY.

KYZ001>023-026-027-061>063-070>075-151400-
WESTERN AND SOUTH CENTRAL KENTUCKY

CITY           SKY/WX    TMP DP  RH WIND       PRES   REMARKS
PADUCAH        CLOUDY    32  20  61 NW5       30.15R WCI  27
HENDERSON      CLOUDY    30  22  72 W7        30.12R WCI  23
OWENSBORO      CLOUDY    30  22  72 W10       30.12R WCI  21
HOPKINSVILLE   CLOUDY    31  20  63 NW7       30.12R WCI  24
BOWLING GREEN  CLOUDY    31  21  66 W6        30.12R WCI  25
GLASGOW        NOT AVBL
$$

KYZ024-025-028>034-038-045-046-053-151400-
NORTH CENTRAL KENTUCKY

CITY           SKY/WX    TMP DP  RH WIND       PRES   REMARKS
LOUISVILLE/SDF CLOUDY    30  19  63 W6        30.07S WCI  24
LOUISVILLE/LOU CLOUDY    28  21  75 W3        30.07S
FORT KNOX      CLOUDY    28  22  77 SW5       30.05S WCI  23
$$

KYZ035>037-039>044-047>052-055>060-089>105-151400-
NORTHEAST KENTUCKY

CITY           SKY/WX    TMP DP  RH WIND       PRES   REMARKS
LEXINGTON      CLOUDY    26  19  74 CALM      30.04R
COVINGTON      CLOUDY    20  18  92 S3        30.02S FOG
FRANKFORT      PTCLDY    24  17  74 W3        30.04R
$$

KYZ054-064>069-076>088-106>120-151400-
SOUTHEAST KENTUCKY

CITY           SKY/WX    TMP DP  RH WIND       PRES   REMARKS
JACKSON        CLOUDY    28  22  78 CALM      30.00R
LONDON         CLOUDY    29  19  66 NW8       30.02R WCI  21
SOMERSET       NOT AVBL
MIDDLESBORO    CLOUDY    28  26  90 CALM      30.02S
MONTICELLO     CLOUDY    30  21  69 NW5       30.08R WCI  25
$$





USA.gov is the U.S. government's official web portal to all federal, state and local government web resources and services.